GAOFEN-1

Last updated on Mon Sep 07 2026 00:02:45 GMT+0000 (Coordinated Universal Time)

1 39150U 13018A 26249.65506837 .00000549 00000+0 85837-4 0 9996 2 39150 97.9029 320.0377 0017410 8.5326 351.6177 14.76532359720267
UTC large
Height (km)
Speed (km/s)
/
Latitude / Longitude
Inclination (degrees)
Orbital Period (minutes)
Azimuth
Elevation
Range (km)
Doppler Factor

Next 0 passes for location: London (51.5072 / 0.1276)

No passes found over London.
GAOFEN-1